Madisonville, KY

9:48 AM CDT on June 23, 2017 (GMT -0500)
Madisonville

Weather History for K2I0 - March, 2012

Change the Weather History Date:

Monday, March 5, 2012

  Actual Average (KOWB) Record (KOWB)
Temperature  
Mean Temperature 38 °F -  
Max Temperature 44 °F 55 °F 76 °F (1956)
Min Temperature 32 °F 32 °F -6 °F (1960)
Degree Days  
Heating Degree Days 27    
Moisture  
Dew Point 25 °F    
Average Humidity 63    
Maximum Humidity 93    
Minimum Humidity 37    
Precipitation  
Precipitation 0.00 in - - ()
Sea Level Pressure  
Sea Level Pressure 30.34 in    
Wind  
Wind Speed 9 mph ()    
Max Wind Speed 28 mph    
Max Gust Speed 38 mph    
Visibility 10.0 miles    
Events      
Averages and records for this station are not official NWS values.
T = Trace of Precipitation, MM = Missing Value Source: Averaged Metar Reports

Daily Weather History Graph

Daily Weather History Graph

Search for Another Location

Airport or City:

Trip Planner

Search our weather history database for the weather conditions in past years. The results will help you decide how hot, cold, wet, or windy it might be!

Date:

Astronomy

Mar. 05, 2012 Rise Set
Actual Time 6:14 AM CST 5:47 PM CST
Civil Twilight 5:48 AM CST 6:14 PM CST
Nautical Twilight 5:18 AM CST 6:44 PM CST
Astronomical Twilight 4:47 AM CST 7:14 PM CST
Moon 3:08 PM CST (3/5) 4:10 AM CST (3/5)
Length of Visible Light 12h 25m
Length of Day
11h 33m
Waxing Gibbous, 91% of the Moon is Illuminated
Mar 5
Waxing Gibbous
Mar 8
Full
Mar 14
Last Quarter
Mar 22
New
Mar 30
First Quarter

Hourly Weather History & Observations

Time (CST) Temp. Windchill Dew Point Humidity Pressure Visibility Wind Dir Wind Speed Gust Speed Precip Events Conditions
12:15 AM 35.6 °F 31.7 °F 33.8 °F 93% 29.93 in 10.0 mi West 4.6 mph - N/A   Mostly Cloudy
12:35 AM 35.6 °F 28.0 °F 33.8 °F 93% 29.95 in 10.0 mi West 10.4 mph - N/A   Mostly Cloudy
12:55 AM 39.2 °F 29.0 °F 32.0 °F 75% 29.97 in 10.0 mi WNW 21.9 mph 28.8 mph N/A   Scattered Clouds
1:15 AM 39.2 °F 27.8 °F 32.0 °F 75% 29.99 in 10.0 mi WNW 27.6 mph 38.0 mph N/A   Scattered Clouds
1:35 AM 39.2 °F 29.8 °F 32.0 °F 75% 30.01 in 10.0 mi NW 18.4 mph 28.8 mph N/A   Mostly Cloudy
1:55 AM 37.4 °F 26.9 °F 32.0 °F 81% 30.04 in 10.0 mi NW 20.7 mph 33.4 mph N/A   Overcast
2:15 AM 37.4 °F 26.4 °F 30.2 °F 75% 30.06 in 10.0 mi NNW 23.0 mph 34.5 mph N/A   Overcast
2:35 AM 35.6 °F 27.1 °F 30.2 °F 81% 30.08 in 10.0 mi NW 12.7 mph 24.2 mph N/A   Overcast
2:55 AM 35.6 °F 24.5 °F 28.4 °F 75% 30.10 in 10.0 mi NNW 20.7 mph 29.9 mph N/A   Overcast
3:15 AM 35.6 °F 25.2 °F 28.4 °F 75% 30.12 in 10.0 mi NNW 18.4 mph 32.2 mph N/A   Overcast
3:35 AM 33.8 °F 23.2 °F 26.6 °F 75% 30.14 in 10.0 mi NNW 17.3 mph 25.3 mph N/A   Overcast
3:55 AM 33.8 °F 22.8 °F 26.6 °F 75% 30.16 in 10.0 mi NNW 18.4 mph 27.6 mph N/A   Overcast
4:15 AM 33.8 °F 22.8 °F 26.6 °F 75% 30.18 in 10.0 mi NNW 18.4 mph 28.8 mph N/A   Overcast
4:35 AM 33.8 °F 23.2 °F 24.8 °F 70% 30.21 in 10.0 mi NW 17.3 mph 25.3 mph N/A   Overcast
4:55 AM 33.8 °F 24.8 °F 26.6 °F 75% 30.23 in 10.0 mi NNW 12.7 mph 18.4 mph N/A   Overcast
5:15 AM 33.8 °F 25.3 °F 24.8 °F 70% 30.25 in 10.0 mi NNW 11.5 mph 18.4 mph N/A   Overcast
5:35 AM 32.0 °F 24.8 °F 24.8 °F 75% 30.26 in 10.0 mi NNW 8.1 mph - N/A   Overcast
5:55 AM 33.8 °F 27.7 °F 26.6 °F 75% 30.28 in 10.0 mi NNW 6.9 mph - N/A   Overcast
6:15 AM 32.0 °F 23.6 °F 26.6 °F 80% 30.29 in 10.0 mi NW 10.4 mph 16.1 mph N/A   Overcast
6:35 AM 32.0 °F 24.2 °F 24.8 °F 75% 30.31 in 10.0 mi NW 9.2 mph - N/A   Overcast
6:55 AM 32.0 °F 23.0 °F 24.8 °F 75% 30.33 in 10.0 mi NW 11.5 mph - N/A   Overcast
7:15 AM 32.0 °F 23.0 °F 24.8 °F 75% 30.35 in 10.0 mi WNW 11.5 mph 16.1 mph N/A   Overcast
7:35 AM 32.0 °F 22.1 °F 23.0 °F 69% 30.37 in 10.0 mi NW 13.8 mph 17.3 mph N/A   Mostly Cloudy
7:55 AM 32.0 °F 23.0 °F 24.8 °F 75% 30.38 in 10.0 mi NW 11.5 mph 16.1 mph N/A   Mostly Cloudy
8:15 AM 32.0 °F 23.0 °F 26.6 °F 80% 30.39 in 10.0 mi NNW 11.5 mph - N/A   Clear
8:35 AM 33.8 °F 26.4 °F 26.6 °F 75% 30.40 in 10.0 mi NNW 9.2 mph - N/A   Scattered Clouds
8:55 AM 33.8 °F 26.4 °F 24.8 °F 70% 30.41 in 10.0 mi NNW 9.2 mph - N/A   Mostly Cloudy
9:15 AM 33.8 °F 27.7 °F 23.0 °F 65% 30.42 in 10.0 mi North 6.9 mph - N/A   Mostly Cloudy
9:35 AM 33.8 °F 30.8 °F 23.0 °F 65% 30.44 in 10.0 mi North 3.5 mph - N/A   Mostly Cloudy
10:15 AM 35.6 °F 32.8 °F 21.2 °F 56% 30.45 in 10.0 mi NNW 3.5 mph - N/A   Scattered Clouds
10:55 AM 35.6 °F 29.9 °F 21.2 °F 56% 30.46 in 10.0 mi WNW 6.9 mph - N/A   Scattered Clouds
11:15 AM 37.4 °F 33.8 °F 24.8 °F 60% 30.46 in 10.0 mi NNW 4.6 mph - N/A   Scattered Clouds
11:35 AM 37.4 °F - 21.2 °F 52% 30.46 in 10.0 mi Calm Calm - N/A   Scattered Clouds
11:55 AM 39.2 °F 35.0 °F 23.0 °F 52% 30.46 in 10.0 mi WNW 5.8 mph - N/A   Scattered Clouds
12:15 PM 39.2 °F 34.2 °F 21.2 °F 49% 30.47 in 10.0 mi NW 6.9 mph - N/A   Clear
12:35 PM 41.0 °F 38.0 °F 23.0 °F 49% 30.46 in 10.0 mi NW 4.6 mph - N/A   Clear
12:55 PM 41.0 °F 37.1 °F 23.0 °F 49% 30.46 in 10.0 mi NNE 5.8 mph - N/A   Scattered Clouds
1:15 PM 41.0 °F 37.1 °F 23.0 °F 49% 30.46 in 10.0 mi WNW 5.8 mph - N/A   Clear
1:35 PM 41.0 °F 39.0 °F 21.2 °F 45% 30.45 in 10.0 mi SW 3.5 mph - N/A   Scattered Clouds
1:55 PM 42.8 °F 39.3 °F 23.0 °F 46% 30.45 in 10.0 mi SW 5.8 mph - N/A   Scattered Clouds
2:15 PM 42.8 °F - 23.0 °F 46% 30.45 in 10.0 mi Calm Calm - N/A   Scattered Clouds
2:35 PM 42.8 °F - 23.0 °F 46% 30.44 in 10.0 mi Calm Calm - N/A   Scattered Clouds
2:55 PM 42.8 °F 40.1 °F 23.0 °F 46% 30.44 in 10.0 mi WSW 4.6 mph - N/A   Scattered Clouds
3:35 PM 44.6 °F 43.1 °F 21.2 °F 39% 30.43 in 10.0 mi WNW 3.5 mph - N/A   Clear
3:55 PM 42.8 °F 41.1 °F 21.2 °F 42% 30.43 in 10.0 mi SE 3.5 mph - N/A   Clear
4:15 PM 42.8 °F - 21.2 °F 42% 30.43 in 10.0 mi Calm Calm - N/A   Clear
4:35 PM 44.6 °F - 19.4 °F 37% 30.43 in 10.0 mi Calm Calm - N/A   Clear
4:55 PM 42.8 °F - 19.4 °F 39% 30.42 in 10.0 mi Calm Calm - N/A   Clear
5:15 PM 42.8 °F - 19.4 °F 39% 30.42 in 10.0 mi Calm Calm - N/A   Clear
5:35 PM 42.8 °F 41.1 °F 19.4 °F 39% 30.41 in 10.0 mi East 3.5 mph - N/A   Clear
5:55 PM 41.0 °F 37.1 °F 21.2 °F 45% 30.41 in 10.0 mi East 5.8 mph - N/A   Clear
6:15 PM 37.4 °F 33.8 °F 26.6 °F 65% 30.41 in 10.0 mi East 4.6 mph - N/A   Clear
6:35 PM 37.4 °F - 26.6 °F 65% 30.42 in 10.0 mi Calm Calm - N/A   Clear
6:55 PM 37.4 °F 34.9 °F 26.6 °F 65% 30.42 in 10.0 mi East 3.5 mph - N/A   Clear
7:15 PM 35.6 °F - 26.6 °F 70% 30.42 in 10.0 mi Calm Calm - N/A   Clear
7:35 PM 37.4 °F 33.8 °F 24.8 °F 60% 30.41 in 10.0 mi ESE 4.6 mph - N/A   Clear
7:55 PM 37.4 °F - 24.8 °F 60% 30.41 in 10.0 mi Calm Calm - N/A   Clear
8:15 PM 35.6 °F - 24.8 °F 65% 30.42 in 10.0 mi Calm Calm - N/A   Clear
8:35 PM 37.4 °F 34.9 °F 24.8 °F 60% 30.43 in 10.0 mi SE 3.5 mph - N/A   Clear
8:55 PM 35.6 °F - 23.0 °F 60% 30.43 in 10.0 mi Calm Calm - N/A   Clear
9:15 PM 35.6 °F 32.8 °F 24.8 °F 65% 30.43 in 10.0 mi SE 3.5 mph - N/A   Clear
9:35 PM 35.6 °F - 23.0 °F 60% 30.43 in 7.0 mi Calm Calm - N/A   Clear
9:55 PM 35.6 °F 32.8 °F 23.0 °F 60% 30.42 in 10.0 mi SE 3.5 mph - N/A   Clear
10:15 PM 35.6 °F 31.7 °F 23.0 °F 60% 30.42 in 10.0 mi SSE 4.6 mph - N/A   Clear
10:35 PM 35.6 °F 32.8 °F 23.0 °F 60% 30.42 in 10.0 mi SE 3.5 mph - N/A   Clear
10:55 PM 35.6 °F 32.8 °F 23.0 °F 60% 30.42 in 10.0 mi SSE 3.5 mph - N/A   Clear
11:15 PM 35.6 °F 32.8 °F 23.0 °F 60% 30.41 in 10.0 mi SSE 3.5 mph - N/A   Clear
11:35 PM 35.6 °F 30.7 °F 23.0 °F 60% 30.40 in 10.0 mi SSE 5.8 mph - N/A   Clear
11:55 PM 33.8 °F 28.6 °F 23.0 °F 65% 30.40 in 10.0 mi SSE 5.8 mph - N/A   Clear